Location: City of Moscow
(46.7306°N, 116.9989°W)
Time: 10:56:36
(UTC+00:00)

CBERS-1 - Visible Passes

Search period start: 15 March 2026 00:00
Search period end: 25 March 2026 00:00
Orbit: 766 x 771 km, 98.9° (Epoch: 14 March)

Date Brightness Start Highest point End Pass type
(mag) Time Alt. Az. Time Alt. Az. Time Alt. Az.
15 Mar 7.7 02:44:34 10° WSW 02:46:18 12° W 02:48:02 10° WNW visible
15 Mar 6.7 13:08:34 10° NE 13:12:44 25° E 13:16:51 10° SSE visible
16 Mar 7.4 12:34:42 10° ENE 12:36:29 12° E 12:38:16 10° ESE visible
18 Mar 7.4 02:35:09 10° WSW 02:37:49 14° W 02:40:30 10° WNW visible
18 Mar 6.9 13:00:29 10° NE 13:04:17 21° E 13:08:04 10° SE visible
21 Mar 7.2 02:26:04 10° SW 02:29:20 17° W 02:32:39 10° NW visible
21 Mar 7.1 12:52:29 10° NE 12:55:50 17° E 12:59:09 10° SE visible
24 Mar 7.2 12:44:37 10° NE 12:47:21 14° E 12:50:05 10° ESE visible
